Location: ????
(55.5675°N, 37.6272°E)
Time: 06:40:59
(UTC+00:00)

Meteor 1-11 - Pass Details

Date: 14 April 2026
Orbit: 825 x 899 km, 81.2° (Epoch: 12 May)

Event Time Altitude Azimuth Distance (km) Brightness Sun altitude
Rises 17:56:28 0° 345° (NNW) 3,414 8.2 -11.3°
Reaches altitude 10° 17:58:55 10° 347° (NNW) 2,466 7.4 -11.5°
Maximum altitude 18:04:30 79° 75° (ENE) 852 4.2 -12.2°
Enters shadow 18:09:35 12° 162° (SSE) 2,266 5.9 -12.7°
